Location: Newark
(42.6681°N, 4.0833°W)
Time: 19:45:59
(UTC+00:00)

X-37B - Pass Details

Date: 02 October 2020
Orbit: 382 x 392 km, 45.0° (Epoch: 15 October)

Event Time Altitude Azimuth Distance (km) Brightness Sun altitude
Rises 19:05:48 0° 220° (SW) 2,254 4.9 -13.8°
Reaches altitude 10° 19:08:03 10° 207° (SSW) 1,401 3.6 -14.2°
Maximum altitude 19:10:45 26° 149° (SSE) 798 1.8 -14.7°
Enters shadow 19:10:59 26° 140° (SE) 804 1.8 -14.7°
